Content
SEND FEEDBACK

Daily
Averages
Monthly
Summary
United States of America

TULLAHOMA, TENNESSEE


Home > North America > United States > Tennessee
Elevation: 1081 feet     Latitude: 35 22N     Longitude: 086 15W

WEATHER
 
SELECT A DAY
Number of Records: 52,957;   Date Range: 9/2/10 - 7/6/14
 
SHARE

PRINT THIS DATA

[ ← Previous Day ]
WEATHER ALMANAC - OCTOBER 8, 2013
[ Next Day → ]
[ °C ]   °F
We're sorry. There is no daily almanac available for Tullahoma, Tennessee on October 8, 2013.
WEATHER BY HOUR - OCTOBER 8, 2013
[ °C ]   °F
Local TimeTemperatureDewpointHumidityBarometerVisibilityWind DirectionWind SpeedGust SpeedPrecipitationEventsConditions
12:35 AM53.6 °F44.6 °F72 %30.10 in10.0 miNE (40°)8.1 mphClear
12:55 AM53.6 °F44.6 °F72 %30.10 in10.0 miNE (40°)9.2 mphClear
1:15 AM53.6 °F44.6 °F72 %30.10 in10.0 miNE (40°)9.2 mphClear
1:35 AM51.8 °F44.6 °F76 %30.10 in10.0 miNNE (30°)5.8 mphClear
1:55 AM51.8 °F44.6 °F76 %30.10 in10.0 miNE (40°)6.9 mphClear
2:15 AM51.8 °F44.6 °F76 %30.10 in10.0 miNNE (30°)8.1 mphClear
2:35 AM51.8 °F44.6 °F76 %30.09 in10.0 miNE (40°)6.9 mphClear
2:55 AM51.8 °F44.6 °F76 %30.09 in10.0 miENE (60°)5.8 mphClear
3:15 AM51.8 °F44.6 °F76 %30.09 in10.0 miENE (60°)9.2 mphClear
3:35 AM50.0 °F44.6 °F82 %30.08 in10.0 miNE (40°)6.9 mphClear
3:55 AM50.0 °F44.6 °F82 %30.08 in10.0 miNE (40°)9.2 mphClear
4:15 AM50.0 °F44.6 °F82 %30.08 in10.0 miNNE (30°)5.8 mphClear
4:35 AM48.2 °F44.6 °F87 %30.09 in10.0 miNE (40°)8.1 mphClear
4:55 AM48.2 °F44.6 °F87 %30.09 in10.0 miNE (50°)5.8 mphClear
5:15 AM48.2 °F44.6 °F87 %30.10 in10.0 miNNE (30°)5.8 mphClear
5:35 AM48.2 °F44.6 °F87 %30.10 in10.0 miNNE (30°)5.8 mphClear
5:55 AM48.2 °F44.6 °F87 %30.10 in10.0 miNE (40°)3.5 mphClear
6:15 AM48.2 °F44.6 °F87 %30.11 in10.0 miNE (40°)5.8 mphClear
6:35 AM48.2 °F44.6 °F87 %30.11 in10.0 miNE (40°)5.8 mphClear
6:55 AM48.2 °F44.6 °F87 %30.11 in10.0 miNNE (30°)4.6 mphClear
7:15 AM48.2 °F44.6 °F87 %30.12 in10.0 miNNE (30°)3.5 mphClear
7:35 AM48.2 °F44.6 °F87 %30.12 in10.0 miNE (40°)5.8 mphClear
7:55 AM50.0 °F44.6 °F82 %30.12 in10.0 miNE (40°)5.8 mphClear
8:15 AM51.8 °F44.6 °F76 %30.13 in10.0 miNE (50°)6.9 mphClear
8:35 AM53.6 °F44.6 °F72 %30.13 in10.0 miNE (50°)10.4 mphClear
8:55 AM53.6 °F44.6 °F72 %30.14 in10.0 miNE (50°)9.2 mphClear
9:15 AM55.4 °F44.6 °F67 %30.14 in10.0 miENE (60°)9.2 mphClear
9:35 AM57.2 °F44.6 °F63 %30.14 in10.0 miENE (60°)8.1 mphClear
9:55 AM59.0 °F46.4 °F63 %30.14 in10.0 miNE (50°)9.2 mphClear
10:15 AM60.8 °F46.4 °F59 %30.14 in10.0 miENE (60°)6.9 mphClear
10:35 AM60.8 °F46.4 °F59 %30.14 in10.0 miNE (40°)8.1 mphClear
10:55 AM62.6 °F46.4 °F55 %30.13 in10.0 miNorth (10°)8.1 mphClear
11:15 AM64.4 °F46.4 °F52 %30.13 in10.0 miNE (50°)3.5 mphScattered Clouds
11:35 AM64.4 °F48.2 °F56 %30.13 in10.0 miNorth (350°)4.6 mphPartly Cloudy
11:55 AM64.4 °F48.2 °F56 %30.14 in10.0 miNE (50°)5.8 mphScattered Clouds
12:15 PM66.2 °F48.2 °F52 %30.13 in10.0 miNorth (360°)5.8 mphScattered Clouds
12:35 PM68.0 °F48.2 °F49 %30.13 in10.0 miNorth (10°)3.5 mphMostly Cloudy
12:55 PM69.8 °F48.2 °F46 %30.12 in10.0 miNNE (30°)3.5 mphOvercast
1:15 PM69.8 °F48.2 °F46 %30.11 in10.0 miNNE (20°)5.8 mphPartly Cloudy
1:35 PM69.8 °F48.2 °F46 %30.11 in10.0 miNNE (30°)8.1 mphClear
1:55 PM69.8 °F50.0 °F49 %30.10 in10.0 miENE (70°)4.6 mphClear
2:15 PM71.6 °F50.0 °F46 %30.10 in10.0 miNNE (20°)6.9 mphClear
2:35 PM71.6 °F50.0 °F46 %30.10 in10.0 miNE (50°)8.1 mphPartly Cloudy
2:55 PM71.6 °F51.8 °F50 %30.10 in10.0 miNorth (10°)5.8 mphClear
3:15 PM71.6 °F51.8 °F50 %30.10 in10.0 miNorth (350°)6.9 mphClear
3:35 PM71.6 °F51.8 °F50 %30.09 in10.0 miNorth (10°)8.1 mphClear
3:55 PM71.6 °F51.8 °F50 %30.09 in10.0 miNorth (360°)9.2 mphClear
4:15 PM71.6 °F51.8 °F50 %30.09 in10.0 miNorth (360°)9.2 mphClear
4:35 PM71.6 °F51.8 °F50 %30.10 in10.0 miNorth (360°)8.1 mphClear
4:55 PM71.6 °F51.8 °F50 %30.10 in10.0 miNorth (360°)6.9 mphClear
5:15 PM71.6 °F51.8 °F50 %30.10 in10.0 miNNE (20°)6.9 mphClear
5:35 PM69.8 °F53.6 °F56 %30.10 in10.0 miNorth (10°)6.9 mphClear
5:55 PM68.0 °F53.6 °F60 %30.10 in10.0 miNorth (10°)4.6 mphClear
6:15 PM64.4 °F53.6 °F68 %30.11 in10.0 miNorth (360°)3.5 mphClear
6:35 PM62.6 °F53.6 °F72 %30.11 in10.0 miNorth (10°)3.5 mphClear
6:55 PM64.4 °F53.6 °F68 %30.12 in10.0 miNorth (10°)4.6 mphMostly Cloudy
7:15 PM62.6 °F53.6 °F72 %30.13 in10.0 miNorth (10°)3.5 mphMostly Cloudy
7:35 PM64.4 °F51.8 °F64 %30.13 in10.0 miNE (40°)4.6 mphOvercast
7:55 PM64.4 °F51.8 °F64 %30.14 in10.0 miNE (50°)4.6 mphMostly Cloudy
8:15 PM62.6 °F51.8 °F68 %30.14 in10.0 miNE (40°)5.8 mphMostly Cloudy
8:35 PM62.6 °F51.8 °F68 %30.14 in10.0 miENE (70°)6.9 mphScattered Clouds
8:55 PM62.6 °F51.8 °F68 %30.14 in10.0 miNE (50°)4.6 mphMostly Cloudy
9:15 PM62.6 °F51.8 °F68 %30.15 in10.0 miENE (60°)3.5 mphOvercast
9:35 PM62.6 °F51.8 °F68 %30.15 in10.0 miNE (50°)4.6 mphOvercast
9:55 PM62.6 °F51.8 °F68 %30.14 in10.0 miNE (50°)4.6 mphMostly Cloudy
10:15 PM62.6 °F51.8 °F68 %30.14 in10.0 miENE (60°)4.6 mphMostly Cloudy
10:35 PM60.8 °F51.8 °F72 %30.14 in10.0 miCalmMostly Cloudy
10:55 PM60.8 °F51.8 °F72 %30.14 in10.0 miEast (80°)4.6 mphOvercast
11:15 PM60.8 °F51.8 °F72 %30.14 in10.0 miEast (80°)3.5 mphMostly Cloudy
11:35 PM60.8 °F51.8 °F72 %30.14 in10.0 miCalmOvercast
11:55 PM60.8 °F51.8 °F72 %30.13 in10.0 miCalmScattered Clouds
Hourly data recorded from KTHA, located miles away from Tullahoma, Tennessee







STORIES FROM OUR PARTNERS